Weather History for KBJC - January, 2013

Change the Weather History Date:

Tuesday, January 22, 2013

  Actual Average Record
Temperature  
Mean Temperature 48 °F -  
Max Temperature 62 °F 44 °F 66 °F (2009)
Min Temperature 33 °F 25 °F 1 °F (2008)
Degree Days  
Heating Degree Days 18    
Moisture  
Dew Point -26 °F    
Average Humidity 5    
Maximum Humidity 28    
Minimum Humidity 4    
Precipitation  
Precipitation 0.00 in - - ()
Sea Level Pressure  
Sea Level Pressure 30.08 in    
Wind  
Wind Speed 18 mph (WNW)    
Max Wind Speed 34 mph    
Max Gust Speed 45 mph    
Visibility 11 miles    
Events      
Averages and records for this station are not official NWS values.
T = Trace of Precipitation, MM = Missing Value Source: NWS Daily Summary

Daily Weather History Graph

Daily Weather History Graph

Search for Another Location

Airport or City:

Trip Planner

Search our weather history database for the weather conditions in past years. The results will help you decide how hot, cold, wet, or windy it might be!

Date:

Astronomy

Jan. 22, 2013 Rise Set
Actual Time 7:16 AM MST 5:08 PM MST
Civil Twilight 6:47 AM MST 5:37 PM MST
Nautical Twilight 6:14 AM MST 6:10 PM MST
Astronomical Twilight 5:42 AM MST 6:42 PM MST
Moon 1:33 PM MST (1/22) 3:40 AM MST (1/22)
Length of Visible Light 10h 50m
Length of Day
9h 51m
Waxing Gibbous, 83% of the Moon is Illuminated
Jan 22
Waxing Gibbous
Jan 26
Full
Feb 3
Last Quarter
Feb 10
New
Feb 17
First Quarter

Hourly Weather History & Observations

Time (MST) Temp. Windchill Dew Point Humidity Pressure Visibility Wind Dir Wind Speed Gust Speed Precip Events Conditions
12:16 AM 50.0 °F - -16.6 °F 6% 30.06 in 10.0 mi WNW 18.4 mph 28.8 mph N/A   Clear
12:35 AM 48.2 °F - -16.6 °F 6% 30.06 in 10.0 mi WNW 16.1 mph 20.7 mph N/A   Clear
12:56 AM 50.0 °F - -18.4 °F 5% 30.06 in 10.0 mi West 12.7 mph 20.7 mph N/A   Clear
1:16 AM 50.0 °F - -18.4 °F 5% 30.06 in 10.0 mi West 16.1 mph - N/A   Clear
1:36 AM 50.0 °F - -18.4 °F 5% 30.05 in 10.0 mi West 15.0 mph 19.6 mph N/A   Clear
1:56 AM 50.0 °F - -20.2 °F 5% 30.04 in 10.0 mi WNW 26.5 mph 32.2 mph N/A   Clear
2:16 AM 51.8 °F - -22.0 °F 4% 30.03 in 10.0 mi WNW 25.3 mph 40.3 mph N/A   Clear
2:36 AM 51.8 °F - -23.8 °F 4% 30.03 in 10.0 mi West 25.3 mph 44.9 mph N/A   Clear
2:56 AM 51.8 °F - -22.0 °F 4% 30.04 in 10.0 mi West 21.9 mph 39.1 mph N/A   Clear
3:16 AM 51.8 °F - -22.0 °F 4% 30.03 in 10.0 mi West 21.9 mph 36.8 mph N/A   Clear
3:36 AM 51.8 °F - -22.0 °F 4% 30.00 in 10.0 mi West 34.5 mph 44.9 mph N/A   Clear
3:56 AM 51.8 °F - -25.6 °F 4% 30.01 in 10.0 mi WNW 25.3 mph 42.6 mph N/A   Clear
4:16 AM 51.8 °F - -25.6 °F 4% 30.02 in 10.0 mi WNW 18.4 mph 25.3 mph N/A   Clear
4:36 AM 51.8 °F - -27.4 °F 4% 30.02 in 10.0 mi West 23.0 mph 36.8 mph N/A   Clear
4:56 AM 50.0 °F - -23.8 °F 4% 30.03 in 10.0 mi West 24.2 mph 34.5 mph N/A   Clear
5:47 AM 50.0 °F - -23.8 °F 4% 30.05 in 30.0 mi WNW 23.0 mph 31.1 mph N/A   Scattered Clouds
6:47 AM 48.2 °F - -23.8 °F 4% 30.07 in 30.0 mi WNW 18.4 mph - N/A   Scattered Clouds
7:50 AM 33.8 °F 25.3 °F 3.2 °F 28% 30.10 in 50.0 mi North 11.5 mph - N/A   Partly Cloudy
8:47 AM 50.0 °F - -18.4 °F 5% 30.10 in 70.0 mi NW 5.8 mph - N/A   Partly Cloudy
9:50 AM 55.4 °F - -20.2 °F 4% 30.11 in 70.0 mi NW 6.9 mph - N/A   Partly Cloudy
10:47 AM 60.8 °F - -38.2 °F 4% 30.00 in 70.0 mi West 18.4 mph 27.6 mph N/A   Scattered Clouds
11:53 AM 62.6 °F - -36.4 °F 4% 30.09 in 70.0 mi West 25.3 mph 36.8 mph N/A   Scattered Clouds
12:53 PM 62.6 °F - -20.2 °F 4% 30.08 in 70.0 mi West 18.4 mph 26.5 mph N/A   Scattered Clouds
1:47 PM 62.6 °F - -40.0 °F 4% 30.06 in 70.0 mi West 25.3 mph 33.4 mph N/A   Partly Cloudy
2:47 PM 62.6 °F - -41.8 °F 4% 30.06 in 70.0 mi West 33.4 mph 41.4 mph N/A   Scattered Clouds
3:53 PM 60.8 °F - -41.8 °F 4% 30.09 in 70.0 mi West 20.7 mph 27.6 mph N/A   Scattered Clouds
4:53 PM 57.2 °F - -20.2 °F 4% 30.10 in 60.0 mi WNW 16.1 mph - N/A   Scattered Clouds
5:47 PM 55.4 °F - -36.4 °F 4% 30.08 in 40.0 mi West 19.6 mph 25.3 mph N/A   Scattered Clouds
6:47 PM 53.6 °F - -34.6 °F 4% 30.14 in 40.0 mi WNW 16.1 mph - N/A   Scattered Clouds
7:55 PM 50.0 °F - -32.8 °F 4% 30.15 in 20.0 mi NW 10.4 mph - N/A   Scattered Clouds
8:55 PM 46.4 °F - -29.2 °F 4% 30.15 in 20.0 mi Calm Calm - N/A   Scattered Clouds
9:47 PM 48.2 °F - -34.6 °F 4% 30.15 in 20.0 mi WSW 3.5 mph - N/A   Scattered Clouds
10:16 PM 51.8 °F - -36.4 °F 4% 30.14 in 10.0 mi NW 8.1 mph - N/A   Clear
10:36 PM 50.0 °F - -43.6 °F 4% 30.15 in 10.0 mi WNW 5.8 mph - N/A   Clear
10:56 PM 44.6 °F - -25.6 °F 5% 30.15 in 10.0 mi Calm Calm - N/A   Clear
11:16 PM 42.8 °F 39.3 °F -23.8 °F 5% 30.15 in 10.0 mi South 5.8 mph - N/A   Clear
11:36 PM 44.6 °F 42.2 °F -27.4 °F 4% 30.15 in 10.0 mi WNW 4.6 mph - N/A   Clear
11:56 PM 42.8 °F 41.1 °F -22.0 °F 6% 30.15 in 10.0 mi NE 3.5 mph - N/A   Clear